Location: Henham
(51.9333°N, 0.2500°E)
Time: 07:47:04
(UTC+00:00)

STARLINK-29 - Pass Details

Date: 23 October 2019
Orbit: 438 x 448 km, 53.0° (Epoch: 21 November)

Event Time Altitude Azimuth Distance (km) Brightness Sun altitude
Rises 17:37:48 0° 287° (WNW) 2,433 8.3 -8.2°
Reaches altitude 10° 17:39:59 10° 280° (W) 1,563 7.3 -8.5°
Maximum altitude 17:43:18 40° 210° (SSW) 670 4.4 -9.0°
Drops below altitude 10° 17:46:36 10° 139° (SE) 1,562 5.6 -9.5°
Enters shadow 17:47:57 - 134° (SE) 2,093 6.2 -9.7°
